owner,sensor,date,latitude,longitude,vertical_datum,direction_of_sea_water_velocity,sea_water_speed,upward_sea_water_velocity,qcFlag 
TABS,ioos:station:wmo:42049:1,2006-05-01T00:00:00Z,28.3507,-96.0058,2.0,238.8750681,26.27197176,-99999.0,'11111222,11111222,99999999' 
TABS,ioos:station:wmo:42049:1,2006-05-01T00:30:00Z,28.3507,-96.0058,2.0,238.9459381,28.4002007,-99999.0,'11111222,11111222,99999999' 
TABS,ioos:station:wmo:42049:1,2006-05-01T01:00:00Z,28.3507,-96.0058,2.0,242.6879694,29.8585147,-99999.0,'11111222,11111222,99999999' 
TABS,ioos:station:wmo:42049:1,2006-05-01T01:30:00Z,28.3507,-96.0058,2.0,240.2174138,30.44061103,-99999.0,'11111222,11111222,99999999' 
TABS,ioos:station:wmo:42049:1,2006-05-01T02:00:00Z,28.3507,-96.0058,2.0,247.0216125,31.37984385,-99999.0,'11111222,11111222,99999999' 
TABS,ioos:station:wmo:42049:1,2006-05-01T02:30:00Z,28.3507,-96.0058,2.0,245.9344596,33.42524944,-99999.0,'11111222,11111222,99999999' 
TABS,ioos:station:wmo:42049:1,2006-05-01T03:00:00Z,28.3507,-96.0058,2.0,250.4558638,36.76836276,-99999.0,'11111222,11111222,99999999' 
TABS,ioos:station:wmo:42049:1,2006-05-01T03:30:00Z,28.3507,-96.0058,2.0,250.9245252,37.36148016,-99999.0,'11111222,11111222,99999999' 
TABS,ioos:station:wmo:42049:1,2006-05-01T04:00:00Z,28.3507,-96.0058,2.0,254.6937695,39.62549684,-99999.0,'11111222,11111222,99999999' 
TABS,ioos:station:wmo:42049:1,2006-05-01T04:30:00Z,28.3507,-96.0058,2.0,262.3726176,43.32327435,-99999.0,'11111222,11111222,99999999' 
TABS,ioos:station:wmo:42049:1,2006-05-01T05:00:00Z,28.3507,-96.0058,2.0,266.3612559,45.5417896,-99999.0,'11111222,11111222,99999999' 
TABS,ioos:station:wmo:42049:1,2006-05-01T05:30:00Z,28.3507,-96.0058,2.0,268.6658859,45.11222118,-99999.0,'11111222,11111222,99999999' 
TABS,ioos:station:wmo:42049:1,2006-05-01T06:00:00Z,28.3507,-96.0058,2.0,270.1733181,43.08019615,-99999.0,'11111222,11111222,99999999' 
TABS,ioos:station:wmo:42049:1,2006-05-01T06:30:00Z,28.3507,-96.0058,2.0,273.2968792,42.78078658,-99999.0,'11111222,11111222,99999999' 
TABS,ioos:station:wmo:42049:1,2006-05-01T07:00:00Z,28.3507,-96.0058,2.0,275.8541477,45.00467753,-99999.0,'11111222,11111222,99999999' 
TABS,ioos:station:wmo:42049:1,2006-05-01T07:30:00Z,28.3507,-96.0058,2.0,275.658539,45.64237505,-99999.0,'11111222,11111222,99999999' 
TABS,ioos:station:wmo:42049:1,2006-05-01T08:00:00Z,28.3507,-96.0058,2.0,278.4335558,44.11700919,-99999.0,'11111222,11111222,99999999' 
TABS,ioos:station:wmo:42049:1,2006-05-01T08:30:00Z,28.3507,-96.0058,2.0,279.0211741,43.30562319,-99999.0,'11111222,11111222,99999999' 
TABS,ioos:station:wmo:42049:1,2006-05-01T09:00:00Z,28.3507,-96.0058,2.0,279.9269667,43.62305927,-99999.0,'11111222,11111222,99999999' 
TABS,ioos:station:wmo:42049:1,2006-05-01T09:30:00Z,28.3507,-96.0058,2.0,282.1567859,41.55173763,-99999.0,'11111222,11111222,99999999' 
TABS,ioos:station:wmo:42049:1,2006-05-01T10:00:00Z,28.3507,-96.0058,2.0,279.623045,39.36384763,-99999.0,'11111222,11111222,99999999' 
TABS,ioos:station:wmo:42049:1,2006-05-01T10:30:00Z,28.3507,-96.0058,2.0,278.9924247,36.85291847,-99999.0,'11111222,11111222,99999999' 
TABS,ioos:station:wmo:42049:1,2006-05-01T11:00:00Z,28.3507,-96.0058,2.0,275.7946932,38.82838266,-99999.0,'11111222,11111222,99999999' 
TABS,ioos:station:wmo:42049:1,2006-05-01T11:30:00Z,28.3507,-96.0058,2.0,275.3595634,37.47380552,-99999.0,'11111222,11111222,99999999' 
TABS,ioos:station:wmo:42049:1,2006-05-01T12:00:00Z,28.3507,-96.0058,2.0,267.3709903,35.97785569,-99999.0,'11111222,11111222,99999999' 
TABS,ioos:station:wmo:42049:1,2006-05-01T12:30:00Z,28.3507,-96.0058,2.0,268.7660446,31.58732024,-99999.0,'11111222,11111222,99999999' 
TABS,ioos:station:wmo:42049:1,2006-05-01T13:00:00Z,28.3507,-96.0058,2.0,265.2113172,30.90786955,-99999.0,'11111222,11111222,99999999' 
TABS,ioos:station:wmo:42049:1,2006-05-01T13:30:00Z,28.3507,-96.0058,2.0,258.6201617,30.71377053,-99999.0,'11111222,11111222,99999999' 
TABS,ioos:station:wmo:42049:1,2006-05-01T14:00:00Z,28.3507,-96.0058,2.0,259.9745108,32.97345144,-99999.0,'11111222,11111222,99999999' 
TABS,ioos:station:wmo:42049:1,2006-05-01T14:30:00Z,28.3507,-96.0058,2.0,258.8798879,33.08105198,-99999.0,'11111222,11111222,99999999' 
TABS,ioos:station:wmo:42049:1,2006-05-01T15:00:00Z,28.3507,-96.0058,2.0,263.8748523,30.83601304,-99999.0,'11111222,11111222,99999999' 
TABS,ioos:station:wmo:42049:1,2006-05-01T15:30:00Z,28.3507,-96.0058,2.0,252.9683698,40.66328196,-99999.0,'11111222,11111222,99999999' 
TABS,ioos:station:wmo:42049:1,2006-05-01T16:00:00Z,28.3507,-96.0058,2.0,249.4363899,37.29633226,-99999.0,'11111222,11111222,99999999' 
TABS,ioos:station:wmo:42049:1,2006-05-01T16:30:00Z,28.3507,-96.0058,2.0,242.0620502,33.98009417,-99999.0,'11111222,11111222,99999999' 
TABS,ioos:station:wmo:42049:1,2006-05-01T17:00:00Z,28.3507,-96.0058,2.0,238.539499,31.07842499,-99999.0,'11111222,11111222,99999999' 
TABS,ioos:station:wmo:42049:1,2006-05-01T17:30:00Z,28.3507,-96.0058,2.0,235.5499136,30.12286839,-99999.0,'11111222,11111222,99999999' 
TABS,ioos:station:wmo:42049:1,2006-05-01T18:00:00Z,28.3507,-96.0058,2.0,237.0380198,30.10601269,-99999.0,'11111222,11111222,99999999' 
TABS,ioos:station:wmo:42049:1,2006-05-01T18:30:00Z,28.3507,-96.0058,2.0,245.7646386,28.81991152,-99999.0,'11111222,11111222,99999999' 
TABS,ioos:station:wmo:42049:1,2006-05-01T19:00:00Z,28.3507,-96.0058,2.0,243.2209746,27.58879845,-99999.0,'11111222,11111222,99999999' 
TABS,ioos:station:wmo:42049:1,2006-05-01T19:30:00Z,28.3507,-96.0058,2.0,249.8115394,27.70186997,-99999.0,'11111222,11111222,99999999' 
TABS,ioos:station:wmo:42049:1,2006-05-01T20:00:00Z,28.3507,-96.0058,2.0,248.6769157,27.11617967,-99999.0,'11111222,11111222,99999999' 
TABS,ioos:station:wmo:42049:1,2006-05-01T20:30:00Z,28.3507,-96.0058,2.0,247.7843615,25.70833328,-99999.0,'11111222,11111222,99999999' 
TABS,ioos:station:wmo:42049:1,2006-05-01T21:00:00Z,28.3507,-96.0058,2.0,245.5246082,27.46824348,-99999.0,'11111222,11111222,99999999' 
TABS,ioos:station:wmo:42049:1,2006-05-01T21:30:00Z,28.3507,-96.0058,2.0,243.9874097,28.27415958,-99999.0,'11111222,11111222,99999999' 
TABS,ioos:station:wmo:42049:1,2006-05-01T22:00:00Z,28.3507,-96.0058,2.0,244.5882221,27.98782771,-99999.0,'11111222,11111222,99999999' 
TABS,ioos:station:wmo:42049:1,2006-05-01T22:30:00Z,28.3507,-96.0058,2.0,247.604076,28.29406298,-99999.0,'11111222,11111222,99999999' 
TABS,ioos:station:wmo:42049:1,2006-05-01T23:00:00Z,28.3507,-96.0058,2.0,244.3552281,30.33841459,-99999.0,'11111222,11111222,99999999' 
TABS,ioos:station:wmo:42049:1,2006-05-01T23:30:00Z,28.3507,-96.0058,2.0,247.4615595,28.02002855,-99999.0,'11111222,11111222,99999999' 
TABS,ioos:station:wmo:42049:1,2006-05-02T00:00:00Z,28.3507,-96.0058,2.0,247.5564624,27.68705474,-99999.0,'11111222,11111222,99999999' 
TABS,ioos:station:wmo:42049:1,2006-05-02T00:30:00Z,28.3507,-96.0058,2.0,255.5086506,31.17166021,-99999.0,'11111222,11111222,99999999' 
TABS,ioos:station:wmo:42049:1,2006-05-02T01:00:00Z,28.3507,-96.0058,2.0,257.5300794,34.59608793,-99999.0,'11111222,11111222,99999999' 
TABS,ioos:station:wmo:42049:1,2006-05-02T01:30:00Z,28.3507,-96.0058,2.0,256.5176488,35.60104493,-99999.0,'11111222,11111222,99999999' 
TABS,ioos:station:wmo:42049:1,2006-05-02T02:00:00Z,28.3507,-96.0058,2.0,252.6512661,42.18920834,-99999.0,'11111222,11111222,99999999' 
TABS,ioos:station:wmo:42049:1,2006-05-02T02:30:00Z,28.3507,-96.0058,2.0,254.3355389,44.4820076,-99999.0,'11111222,11111222,99999999' 
TABS,ioos:station:wmo:42049:1,2006-05-02T03:00:00Z,28.3507,-96.0058,2.0,250.67675,45.30190504,-99999.0,'11111222,11111222,99999999' 
TABS,ioos:station:wmo:42049:1,2006-05-02T03:30:00Z,28.3507,-96.0058,2.0,246.2034059,44.43782735,-99999.0,'11111222,11111222,99999999' 
TABS,ioos:station:wmo:42049:1,2006-05-02T04:00:00Z,28.3507,-96.0058,2.0,242.2332138,47.35244028,-99999.0,'11111222,11111222,99999999' 
TABS,ioos:station:wmo:42049:1,2006-05-02T04:30:00Z,28.3507,-96.0058,2.0,244.2680908,44.26988593,-99999.0,'11111222,11111222,99999999' 
TABS,ioos:station:wmo:42049:1,2006-05-02T05:00:00Z,28.3507,-96.0058,2.0,244.2599836,43.77333663,-99999.0,'11111222,11111222,99999999' 
TABS,ioos:station:wmo:42049:1,2006-05-02T05:30:00Z,28.3507,-96.0058,2.0,246.2750453,45.48383889,-99999.0,'11111222,11111222,99999999' 
TABS,ioos:station:wmo:42049:1,2006-05-02T06:00:00Z,28.3507,-96.0058,2.0,246.4898176,40.61105268,-99999.0,'11111222,11111222,99999999' 
TABS,ioos:station:wmo:42049:1,2006-05-02T06:30:00Z,28.3507,-96.0058,2.0,246.1552122,36.46217355,-99999.0,'11111222,11111222,99999999' 
TABS,ioos:station:wmo:42049:1,2006-05-02T07:00:00Z,28.3507,-96.0058,2.0,247.7904952,34.44550043,-99999.0,'11111222,11111222,99999999' 
TABS,ioos:station:wmo:42049:1,2006-05-02T07:30:00Z,28.3507,-96.0058,2.0,254.4655976,34.05393516,-99999.0,'11111222,11111222,99999999' 
TABS,ioos:station:wmo:42049:1,2006-05-02T08:00:00Z,28.3507,-96.0058,2.0,263.9341302,32.93437262,-99999.0,'11111222,11111222,99999999' 
TABS,ioos:station:wmo:42049:1,2006-05-02T08:30:00Z,28.3507,-96.0058,2.0,264.2450272,33.70987986,-99999.0,'11111222,11111222,99999999' 
TABS,ioos:station:wmo:42049:1,2006-05-02T09:00:00Z,28.3507,-96.0058,2.0,273.2369563,34.18452574,-99999.0,'11111222,11111222,99999999' 
TABS,ioos:station:wmo:42049:1,2006-05-02T09:30:00Z,28.3507,-96.0058,2.0,272.7978695,35.24199767,-99999.0,'11111222,11111222,99999999' 
TABS,ioos:station:wmo:42049:1,2006-05-02T10:00:00Z,28.3507,-96.0058,2.0,277.4853159,32.77930597,-99999.0,'11111222,11111222,99999999' 
TABS,ioos:station:wmo:42049:1,2006-05-02T10:30:00Z,28.3507,-96.0058,2.0,271.4862128,46.66568975,-99999.0,'11111222,11111222,99999999' 
TABS,ioos:station:wmo:42049:1,2006-05-02T11:00:00Z,28.3507,-96.0058,2.0,276.9812288,49.77901767,-99999.0,'11111222,11111222,99999999' 
TABS,ioos:station:wmo:42049:1,2006-05-02T11:30:00Z,28.3507,-96.0058,2.0,274.5137507,46.38383447,-99999.0,'11111222,11111222,99999999' 
TABS,ioos:station:wmo:42049:1,2006-05-02T12:00:00Z,28.3507,-96.0058,2.0,274.736843,43.7192978,-99999.0,'11111222,11111222,99999999' 
TABS,ioos:station:wmo:42049:1,2006-05-02T12:30:00Z,28.3507,-96.0058,2.0,269.3096232,43.18313097,-99999.0,'11111222,11111222,99999999' 
TABS,ioos:station:wmo:42049:1,2006-05-02T13:00:00Z,28.3507,-96.0058,2.0,267.606075,37.83300675,-99999.0,'11111222,11111222,99999999' 
TABS,ioos:station:wmo:42049:1,2006-05-02T13:30:00Z,28.3507,-96.0058,2.0,260.239745,37.98983022,-99999.0,'11111222,11111222,99999999' 
TABS,ioos:station:wmo:42049:1,2006-05-02T14:00:00Z,28.3507,-96.0058,2.0,253.9238734,34.41577836,-99999.0,'11111222,11111222,99999999' 
TABS,ioos:station:wmo:42049:1,2006-05-02T14:30:00Z,28.3507,-96.0058,2.0,244.5515334,35.56023763,-99999.0,'11111222,11111222,99999999' 
TABS,ioos:station:wmo:42049:1,2006-05-02T15:00:00Z,28.3507,-96.0058,2.0,254.569658,39.0889038,-99999.0,'11111222,11111222,99999999' 
TABS,ioos:station:wmo:42049:1,2006-05-02T15:30:00Z,28.3507,-96.0058,2.0,252.9903105,37.87683725,-99999.0,'11111222,11111222,99999999' 
TABS,ioos:station:wmo:42049:1,2006-05-02T16:00:00Z,28.3507,-96.0058,2.0,259.1717416,37.52815077,-99999.0,'11111222,11111222,99999999' 
TABS,ioos:station:wmo:42049:1,2006-05-02T16:30:00Z,28.3507,-96.0058,2.0,261.7820004,35.19133132,-99999.0,'11111222,11111222,99999999' 
TABS,ioos:station:wmo:42049:1,2006-05-02T17:00:00Z,28.3507,-96.0058,2.0,265.1299376,35.45798923,-99999.0,'11111222,11111222,99999999' 
TABS,ioos:station:wmo:42049:1,2006-05-02T17:30:00Z,28.3507,-96.0058,2.0,262.1296356,36.44324492,-99999.0,'11111222,11111222,99999999' 
TABS,ioos:station:wmo:42049:1,2006-05-02T18:00:00Z,28.3507,-96.0058,2.0,261.6390887,34.11252116,-99999.0,'11111222,11111222,99999999' 
TABS,ioos:station:wmo:42049:1,2006-05-02T18:30:00Z,28.3507,-96.0058,2.0,262.5751689,38.92635226,-99999.0,'11111222,11111222,99999999' 
TABS,ioos:station:wmo:42049:1,2006-05-02T19:00:00Z,28.3507,-96.0058,2.0,255.5079936,33.56799071,-99999.0,'11111222,11111222,99999999' 
TABS,ioos:station:wmo:42049:1,2006-05-02T19:30:00Z,28.3507,-96.0058,2.0,250.0962852,22.70628547,-99999.0,'11111222,11111222,99999999' 
TABS,ioos:station:wmo:42049:1,2006-05-02T20:00:00Z,28.3507,-96.0058,2.0,246.098064,24.82928916,-99999.0,'11111222,11111222,99999999' 
TABS,ioos:station:wmo:42049:1,2006-05-02T20:30:00Z,28.3507,-96.0058,2.0,242.2435354,21.94504044,-99999.0,'11111222,11111222,99999999' 
TABS,ioos:station:wmo:42049:1,2006-05-02T21:00:00Z,28.3507,-96.0058,2.0,237.4119172,24.50841692,-99999.0,'11111222,11111222,99999999' 
TABS,ioos:station:wmo:42049:1,2006-05-02T21:30:00Z,28.3507,-96.0058,2.0,238.2664026,23.87990159,-99999.0,'11111222,11111222,99999999' 
TABS,ioos:station:wmo:42049:1,2006-05-02T22:00:00Z,28.3507,-96.0058,2.0,245.0980556,29.1169315,-99999.0,'11111222,11111222,99999999' 
TABS,ioos:station:wmo:42049:1,2006-05-02T22:30:00Z,28.3507,-96.0058,2.0,256.4733796,32.15179622,-99999.0,'11111222,11111222,99999999' 
TABS,ioos:station:wmo:42049:1,2006-05-02T23:00:00Z,28.3507,-96.0058,2.0,255.0995235,40.0568858,-99999.0,'11111222,11111222,99999999' 
TABS,ioos:station:wmo:42049:1,2006-05-02T23:30:00Z,28.3507,-96.0058,2.0,259.7603658,40.6168598,-99999.0,'11111222,11111222,99999999' 
TABS,ioos:station:wmo:42049:1,2006-05-03T00:00:00Z,28.3507,-96.0058,2.0,253.2964697,42.16926013,-99999.0,'11111222,11111222,99999999' 
TABS,ioos:station:wmo:42049:1,2006-05-03T00:30:00Z,28.3507,-96.0058,2.0,248.220247,43.47313883,-99999.0,'11111222,11111222,99999999' 
TABS,ioos:station:wmo:42049:1,2006-05-03T01:00:00Z,28.3507,-96.0058,2.0,242.5938856,41.45221828,-99999.0,'11111222,11111222,99999999' 
TABS,ioos:station:wmo:42049:1,2006-05-03T01:30:00Z,28.3507,-96.0058,2.0,241.938867,43.17529502,-99999.0,'11111222,11111222,99999999' 
TABS,ioos:station:wmo:42049:1,2006-05-03T02:00:00Z,28.3507,-96.0058,2.0,242.2161103,41.64052954,-99999.0,'11111222,11111222,99999999' 
TABS,ioos:station:wmo:42049:1,2006-05-03T02:30:00Z,28.3507,-96.0058,2.0,237.4928975,43.24532923,-99999.0,'11111222,11111222,99999999' 
TABS,ioos:station:wmo:42049:1,2006-05-03T03:00:00Z,28.3507,-96.0058,2.0,235.1322381,41.43930622,-99999.0,'11111222,11111222,99999999' 
TABS,ioos:station:wmo:42049:1,2006-05-03T03:30:00Z,28.3507,-96.0058,2.0,233.020006,41.76007663,-99999.0,'11111222,11111222,99999999' 
TABS,ioos:station:wmo:42049:1,2006-05-03T04:00:00Z,28.3507,-96.0058,2.0,237.0095023,41.32270078,-99999.0,'11111222,11111222,99999999' 
TABS,ioos:station:wmo:42049:1,2006-05-03T04:30:00Z,28.3507,-96.0058,2.0,238.1181942,38.22679296,-99999.0,'11111222,11111222,99999999' 
TABS,ioos:station:wmo:42049:1,2006-05-03T05:00:00Z,28.3507,-96.0058,2.0,233.370889,37.54433246,-99999.0,'11111222,11111222,99999999' 
TABS,ioos:station:wmo:42049:1,2006-05-03T05:30:00Z,28.3507,-96.0058,2.0,235.1034377,31.35860329,-99999.0,'11111222,11111222,99999999' 
TABS,ioos:station:wmo:42049:1,2006-05-03T06:00:00Z,28.3507,-96.0058,2.0,241.2247908,31.43118515,-99999.0,'11111222,11111222,99999999' 
TABS,ioos:station:wmo:42049:1,2006-05-03T06:30:00Z,28.3507,-96.0058,2.0,247.891973,27.79341829,-99999.0,'11111222,11111222,99999999' 
TABS,ioos:station:wmo:42049:1,2006-05-03T07:00:00Z,28.3507,-96.0058,2.0,244.9059224,20.72623941,-99999.0,'11111222,11111222,99999999' 
TABS,ioos:station:wmo:42049:1,2006-05-03T07:30:00Z,28.3507,-96.0058,2.0,245.0585161,17.35885941,-99999.0,'11111222,11111222,99999999' 
TABS,ioos:station:wmo:42049:1,2006-05-03T08:00:00Z,28.3507,-96.0058,2.0,245.1641611,13.92810468,-99999.0,'11111222,11111222,99999999' 
TABS,ioos:station:wmo:42049:1,2006-05-03T08:30:00Z,28.3507,-96.0058,2.0,237.3243829,8.613071461,-99999.0,'11133222,11111222,99999999' 
TABS,ioos:station:wmo:42049:1,2006-05-03T09:00:00Z,28.3507,-96.0058,2.0,250.8726426,4.974625614,-99999.0,'11133222,11111222,99999999' 
TABS,ioos:station:wmo:42049:1,2006-05-03T09:30:00Z,28.3507,-96.0058,2.0,253.8028519,4.696402879,-99999.0,'11133222,11111222,99999999' 
TABS,ioos:station:wmo:42049:1,2006-05-03T10:00:00Z,28.3507,-96.0058,2.0,288.8203252,5.176765399,-99999.0,'11133222,11111222,99999999' 
TABS,ioos:station:wmo:42049:1,2006-05-03T10:30:00Z,28.3507,-96.0058,2.0,325.7711959,7.075514116,-99999.0,'11133222,11111222,99999999' 
TABS,ioos:station:wmo:42049:1,2006-05-03T11:00:00Z,28.3507,-96.0058,2.0,17.07541292,3.065110112,-99999.0,'11133222,11111222,99999999' 
TABS,ioos:station:wmo:42049:1,2006-05-03T11:30:00Z,28.3507,-96.0058,2.0,147.0160288,1.800138884,-99999.0,'11133222,11111222,99999999' 
TABS,ioos:station:wmo:42049:1,2006-05-03T12:00:00Z,28.3507,-96.0058,2.0,170.637964,3.749946666,-99999.0,'11133222,11111222,99999999' 
TABS,ioos:station:wmo:42049:1,2006-05-03T12:30:00Z,28.3507,-96.0058,2.0,167.6208904,7.463517937,-99999.0,'11133222,11111222,99999999' 
TABS,ioos:station:wmo:42049:1,2006-05-03T13:00:00Z,28.3507,-96.0058,2.0,194.8032271,7.788517189,-99999.0,'11133222,11111222,99999999' 
TABS,ioos:station:wmo:42049:1,2006-05-03T13:30:00Z,28.3507,-96.0058,2.0,209.4322892,7.509174389,-99999.0,'11133222,11111222,99999999' 
TABS,ioos:station:wmo:42049:1,2006-05-03T14:00:00Z,28.3507,-96.0058,2.0,246.9528592,2.477761086,-99999.0,'11133222,11111222,99999999' 
TABS,ioos:station:wmo:42049:1,2006-05-03T14:30:00Z,28.3507,-96.0058,2.0,239.8093392,6.86056849,-99999.0,'11133222,11111222,99999999' 
TABS,ioos:station:wmo:42049:1,2006-05-03T15:00:00Z,28.3507,-96.0058,2.0,221.9641223,7.477539702,-99999.0,'11133222,11111222,99999999' 
TABS,ioos:station:wmo:42049:1,2006-05-03T15:30:00Z,28.3507,-96.0058,2.0,258.5742575,6.815049523,-99999.0,'11133222,11111222,99999999' 
TABS,ioos:station:wmo:42049:1,2006-05-03T16:00:00Z,28.3507,-96.0058,2.0,241.8974834,18.17235538,-99999.0,'11111222,11111222,99999999' 
TABS,ioos:station:wmo:42049:1,2006-05-03T16:30:00Z,28.3507,-96.0058,2.0,283.7647906,43.9625022,-99999.0,'11111222,11111222,99999999' 
TABS,ioos:station:wmo:42049:1,2006-05-03T17:00:00Z,28.3507,-96.0058,2.0,282.9166276,48.76382778,-99999.0,'11111222,11111222,99999999' 
TABS,ioos:station:wmo:42049:1,2006-05-03T17:30:00Z,28.3507,-96.0058,2.0,283.3566434,52.72610739,-99999.0,'11111222,11111222,99999999' 
TABS,ioos:station:wmo:42049:1,2006-05-03T18:00:00Z,28.3507,-96.0058,2.0,281.8517015,48.98415254,-99999.0,'11111222,11111222,99999999' 
TABS,ioos:station:wmo:42049:1,2006-05-03T18:30:00Z,28.3507,-96.0058,2.0,281.0001714,45.64866044,-99999.0,'11111222,11111222,99999999' 
TABS,ioos:station:wmo:42049:1,2006-05-03T19:00:00Z,28.3507,-96.0058,2.0,279.7683288,44.38342596,-99999.0,'11111222,11111222,99999999' 
TABS,ioos:station:wmo:42049:1,2006-05-03T19:30:00Z,28.3507,-96.0058,2.0,280.8184756,43.63548671,-99999.0,'11111222,11111222,99999999' 
TABS,ioos:station:wmo:42049:1,2006-05-03T20:00:00Z,28.3507,-96.0058,2.0,276.2683778,40.30091314,-99999.0,'11111222,11111222,99999999' 
TABS,ioos:station:wmo:42049:1,2006-05-03T20:30:00Z,28.3507,-96.0058,2.0,277.0615948,35.63023997,-99999.0,'11111222,11111222,99999999' 
TABS,ioos:station:wmo:42049:1,2006-05-03T21:00:00Z,28.3507,-96.0058,2.0,280.902859,38.33186794,-99999.0,'11111222,11111222,99999999' 
TABS,ioos:station:wmo:42049:1,2006-05-03T21:30:00Z,28.3507,-96.0058,2.0,282.8277991,36.21377776,-99999.0,'11111222,11111222,99999999' 
TABS,ioos:station:wmo:42049:1,2006-05-03T22:00:00Z,28.3507,-96.0058,2.0,287.207045,38.50325311,-99999.0,'11111222,11111222,99999999' 
TABS,ioos:station:wmo:42049:1,2006-05-03T22:30:00Z,28.3507,-96.0058,2.0,290.9143201,37.28652572,-99999.0,'11111222,11111222,99999999' 
TABS,ioos:station:wmo:42049:1,2006-05-03T23:00:00Z,28.3507,-96.0058,2.0,290.6561364,36.31441174,-99999.0,'11111222,11111222,99999999' 
TABS,ioos:station:wmo:42049:1,2006-05-03T23:30:00Z,28.3507,-96.0058,2.0,287.7339016,37.19749723,-99999.0,'11111222,11111222,99999999' 
TABS,ioos:station:wmo:42049:1,2006-05-04T00:00:00Z,28.3507,-96.0058,2.0,289.8641734,34.8749552,-99999.0,'11111222,11111222,99999999' 
TABS,ioos:station:wmo:42049:1,2006-05-04T00:30:00Z,28.3507,-96.0058,2.0,293.0387274,33.8062864,-99999.0,'11111222,11111222,99999999' 
TABS,ioos:station:wmo:42049:1,2006-05-04T01:00:00Z,28.3507,-96.0058,2.0,299.6244137,31.1749595,-99999.0,'11111222,11111222,99999999' 
TABS,ioos:station:wmo:42049:1,2006-05-04T01:30:00Z,28.3507,-96.0058,2.0,302.8956967,37.19345238,-99999.0,'11111222,11111222,99999999' 
TABS,ioos:station:wmo:42049:1,2006-05-04T02:00:00Z,28.3507,-96.0058,2.0,299.4998843,38.52430142,-99999.0,'11111222,11111222,99999999' 
TABS,ioos:station:wmo:42049:1,2006-05-04T02:30:00Z,28.3507,-96.0058,2.0,297.7290072,33.03353599,-99999.0,'11111222,11111222,99999999' 
TABS,ioos:station:wmo:42049:1,2006-05-04T03:00:00Z,28.3507,-96.0058,2.0,296.3462607,31.56903863,-99999.0,'11111222,11111222,99999999' 
TABS,ioos:station:wmo:42049:1,2006-05-04T03:30:00Z,28.3507,-96.0058,2.0,288.6582658,30.0703259,-99999.0,'11111222,11111222,99999999' 
TABS,ioos:station:wmo:42049:1,2006-05-04T04:00:00Z,28.3507,-96.0058,2.0,286.4775292,29.15740901,-99999.0,'11111222,11111222,99999999' 
TABS,ioos:station:wmo:42049:1,2006-05-04T04:30:00Z,28.3507,-96.0058,2.0,282.9037634,23.06236978,-99999.0,'11111222,11111222,99999999' 
TABS,ioos:station:wmo:42049:1,2006-05-04T05:00:00Z,28.3507,-96.0058,2.0,272.7220199,23.16613045,-99999.0,'11111222,11111222,99999999' 
TABS,ioos:station:wmo:42049:1,2006-05-04T05:30:00Z,28.3507,-96.0058,2.0,260.1194153,23.89438428,-99999.0,'11111222,11111222,99999999' 
TABS,ioos:station:wmo:42049:1,2006-05-04T06:00:00Z,28.3507,-96.0058,2.0,264.659732,25.68145245,-99999.0,'11111222,11111222,99999999' 
TABS,ioos:station:wmo:42049:1,2006-05-04T06:30:00Z,28.3507,-96.0058,2.0,265.5127821,25.43795786,-99999.0,'11111222,11111222,99999999' 
TABS,ioos:station:wmo:42049:1,2006-05-04T07:00:00Z,28.3507,-96.0058,2.0,261.3055191,23.41909691,-99999.0,'11111222,11111222,99999999' 
TABS,ioos:station:wmo:42049:1,2006-05-04T07:30:00Z,28.3507,-96.0058,2.0,269.2244085,24.39223237,-99999.0,'11111222,11111222,99999999' 
TABS,ioos:station:wmo:42049:1,2006-05-04T08:00:00Z,28.3507,-96.0058,2.0,267.9058321,23.26553245,-99999.0,'11111222,11111222,99999999' 
TABS,ioos:station:wmo:42049:1,2006-05-04T08:30:00Z,28.3507,-96.0058,2.0,267.6183154,25.5120305,-99999.0,'11111222,11111222,99999999' 
TABS,ioos:station:wmo:42049:1,2006-05-04T09:00:00Z,28.3507,-96.0058,2.0,267.8813552,22.18515945,-99999.0,'11111222,11111222,99999999' 
TABS,ioos:station:wmo:42049:1,2006-05-04T09:30:00Z,28.3507,-96.0058,2.0,267.1406897,24.46044358,-99999.0,'11111222,11111222,99999999' 
TABS,ioos:station:wmo:42049:1,2006-05-04T10:00:00Z,28.3507,-96.0058,2.0,270.5850501,22.54117344,-99999.0,'11111222,11111222,99999999' 
TABS,ioos:station:wmo:42049:1,2006-05-04T10:30:00Z,28.3507,-96.0058,2.0,272.5759975,23.14337918,-99999.0,'11111222,11111222,99999999' 
TABS,ioos:station:wmo:42049:1,2006-05-04T11:00:00Z,28.3507,-96.0058,2.0,275.0030826,21.10037914,-99999.0,'11111222,11111222,99999999' 
TABS,ioos:station:wmo:42049:1,2006-05-04T11:30:00Z,28.3507,-96.0058,2.0,267.7326975,21.23661932,-99999.0,'11111222,11111222,99999999' 
TABS,ioos:station:wmo:42049:1,2006-05-04T12:00:00Z,28.3507,-96.0058,2.0,268.4557692,17.8164671,-99999.0,'11111222,11111222,99999999' 
TABS,ioos:station:wmo:42049:1,2006-05-04T12:30:00Z,28.3507,-96.0058,2.0,255.3037812,18.32963175,-99999.0,'11111222,11111222,99999999' 
TABS,ioos:station:wmo:42049:1,2006-05-04T13:00:00Z,28.3507,-96.0058,2.0,263.5098055,17.34112165,-99999.0,'11111222,11111222,99999999' 
TABS,ioos:station:wmo:42049:1,2006-05-04T13:30:00Z,28.3507,-96.0058,2.0,260.2438248,13.16031155,-99999.0,'11111222,11111222,99999999' 
TABS,ioos:station:wmo:42049:1,2006-05-04T14:00:00Z,28.3507,-96.0058,2.0,260.2050774,14.46077799,-99999.0,'11111222,11111222,99999999' 
TABS,ioos:station:wmo:42049:1,2006-05-04T14:30:00Z,28.3507,-96.0058,2.0,259.8630571,11.87536105,-99999.0,'11111222,11111222,99999999' 
TABS,ioos:station:wmo:42049:1,2006-05-04T15:00:00Z,28.3507,-96.0058,2.0,255.2753033,12.11795362,-99999.0,'11111222,11111222,99999999' 
TABS,ioos:station:wmo:42049:1,2006-05-04T15:30:00Z,28.3507,-96.0058,2.0,246.5648276,11.46577516,-99999.0,'11111222,11111222,99999999' 
TABS,ioos:station:wmo:42049:1,2006-05-04T16:00:00Z,28.3507,-96.0058,2.0,246.0134971,9.839720524,-99999.0,'11133222,11111222,99999999' 